Location: Unspecified
(0.0000°N, 0.0000°E)
Time: 21:16:20
(UTC+00:00)

Tiros 1 - Pass Details

Date: 25 October 2021
Orbit: 630 x 664 km, 48.4° (Epoch: 04 December)

Event Time Altitude Azimuth Distance (km) Brightness Sun altitude
Rises 19:47:21 0° 280° (W) 2,905 11.5 -30.0°
Reaches altitude 10° 19:52:04 10° 236° (WSW) 2,000 10.5 -31.2°
Maximum altitude 19:52:37 10° 229° (SW) 1,987 10.4 -31.3°
Drops below altitude 10° 19:53:11 10° 222° (SW) 2,001 10.3 -31.4°
Sets 19:57:56 0° 178° (S) 2,914 10.7 -32.6°
